Location: Newark
(22.3060°N, 114.2134°E)
Time: 05:00:47
(UTC+00:00)

A-11 Canister half - All Passes

Search period start: 31 July 2021 00:00
Search period end: 10 August 2021 00:00
Orbit: 1513 x 1687 km, 47.2° (Epoch: 30 July)

Date Brightness Start Highest point End Pass type
(mag) Time Alt. Az. Time Alt. Az. Time Alt. Az.
31 Jul - 07:09:34 10° SSW 07:18:43 55° SE 07:28:13 10° NE daylight
31 Jul - 09:14:51 10° WSW 09:23:50 43° NW 09:33:11 10° NNE daylight
31 Jul - 11:25:28 10° NW 11:31:33 17° NNW 11:37:45 10° NNE visible
31 Jul - 13:34:29 10° NNW 13:40:56 18° NNE 13:47:25 10° NE visible
31 Jul - 15:38:52 10° NW 15:48:33 46° NE 15:58:04 10° ESE visible
31 Jul - 17:43:57 10° WNW 17:53:40 52° SW 18:03:13 10° SSE visible
01 Aug - 06:46:49 10° SSW 06:55:50 51° SE 07:05:10 10° ENE daylight
01 Aug - 08:51:46 10° WSW 09:00:50 45° NW 09:10:16 10° NE daylight
01 Aug - 11:02:09 10° NW 11:08:23 18° NNW 11:14:44 10° NNE daylight
01 Aug - 13:11:30 10° NNW 13:17:46 18° NNE 13:24:03 10° NE visible
01 Aug - 15:15:58 10° NNW 15:25:31 43° NE 15:34:57 10° ESE visible
01 Aug - 17:20:54 10° NW 17:30:45 57° SW 17:40:25 10° SSE visible
02 Aug - 06:24:05 10° SSW 06:32:57 47° SE 06:42:06 10° ENE daylight
02 Aug - 08:28:41 10° WSW 08:37:50 48° NW 08:47:21 10° NE daylight
02 Aug - 10:38:51 10° WNW 10:45:14 18° NNW 10:51:44 10° NNE daylight
02 Aug - 12:48:30 10° NNW 12:54:35 17° NNE 13:00:42 10° NE visible
02 Aug - 14:53:03 10° NNW 15:02:29 41° NE 15:11:49 10° ESE visible
02 Aug - 16:57:52 10° NW 17:07:50 61° SW 17:17:37 10° SSE visible
03 Aug - 06:01:23 10° SSW 06:10:04 43° SE 06:19:01 10° ENE daylight
03 Aug - 08:05:39 10° WSW 08:14:50 51° NW 08:24:25 10° NE daylight
03 Aug - 10:15:33 10° WNW 10:22:04 19° NNW 10:28:45 10° NNE daylight
03 Aug - 12:25:30 10° NNW 12:31:24 17° N 12:37:21 10° NE visible
03 Aug - 14:30:10 10° NNW 14:39:26 38° NE 14:48:39 10° E visible
03 Aug - 16:34:51 10° NW 16:44:54 66° SW 16:54:47 10° SSE visible
03 Aug - 18:45:54 10° WSW 18:48:59 12° WSW 18:52:03 10° SW night (unlit)
04 Aug - 05:38:42 10° SSW 05:47:11 39° SE 05:55:54 10° ENE daylight
04 Aug - 07:42:37 10° WSW 07:51:51 55° NW 08:01:29 10° NE daylight
04 Aug - 09:52:16 10° WNW 09:58:56 20° NNW 10:05:46 10° NNE daylight
04 Aug - 12:02:29 10° NNW 12:08:13 16° N 12:13:59 10° NE visible
04 Aug - 14:07:16 10° NNW 14:16:23 36° NNE 14:25:28 10° E visible
04 Aug - 16:11:50 10° NW 16:21:58 71° SW 16:31:56 10° SSE visible
04 Aug - 18:21:46 10° W 18:26:05 13° WSW 18:30:22 10° SSW night (unlit)
05 Aug - 05:16:04 10° S 05:24:19 36° SE 05:32:48 10° ENE daylight
05 Aug - 07:19:36 10° WSW 07:28:53 59° NW 07:38:34 10° NE daylight
05 Aug - 09:28:59 10° WNW 09:35:48 21° NNW 09:42:49 10° NNE daylight
05 Aug - 11:39:27 10° NNW 11:45:01 16° N 11:50:39 10° NE visible
05 Aug - 13:44:22 10° NNW 13:53:19 34° NNE 14:02:15 10° E visible
05 Aug - 15:48:51 10° NW 15:59:02 76° SW 16:09:04 10° SE visible
05 Aug - 17:57:59 10° W 18:03:11 15° WSW 18:08:22 10° SSW night (unlit)
06 Aug - 04:53:26 10° S 05:01:27 33° SE 05:09:39 10° ENE daylight
06 Aug - 06:56:36 10° WSW 07:05:55 63° NW 07:15:38 10° NE daylight
06 Aug - 09:05:42 10° WNW 09:12:40 22° NNW 09:19:51 10° NNE daylight
06 Aug - 11:16:23 10° NNW 11:21:50 15° N 11:27:20 10° NE visible
06 Aug - 13:21:28 10° NNW 13:30:16 32° NNE 13:39:02 10° E visible
06 Aug - 15:25:53 10° NW 15:36:05 81° SW 15:46:11 10° SE visible
06 Aug - 17:34:22 10° W 17:40:18 17° SW 17:46:11 10° SSW visible
07 Aug - 04:30:51 10° S 04:38:35 30° SE 04:46:29 10° ENE daylight
07 Aug - 06:33:38 10° SW 06:42:58 67° NW 06:52:43 10° NE daylight
07 Aug - 08:42:26 10° WNW 08:49:34 22° NNW 08:56:55 10° NNE daylight
07 Aug - 10:53:19 10° NNW 10:58:38 15° N 11:04:01 10° NE daylight
07 Aug - 12:58:35 10° NNW 13:07:11 30° NNE 13:15:48 10° E visible
07 Aug - 15:02:54 10° NW 15:13:08 86° SW 15:23:16 10° SE visible
07 Aug - 17:10:53 10° W 17:17:24 19° SW 17:23:53 10° SSW visible
08 Aug - 04:08:18 10° S 04:15:43 27° SE 04:23:17 10° ENE daylight
08 Aug - 06:10:41 10° SW 06:20:01 72° NW 06:29:46 10° NE daylight
08 Aug - 08:19:11 10° WNW 08:26:28 23° NNW 08:33:58 10° NNE daylight
08 Aug - 10:30:13 10° NNW 10:35:27 15° N 10:40:44 10° NE daylight
08 Aug - 12:35:41 10° NNW 12:44:06 29° NNE 12:52:33 10° E visible
08 Aug - 14:39:57 10° NW 14:50:10 88° NE 15:00:20 10° SE visible
08 Aug - 16:47:28 10° W 16:54:30 21° SW 17:01:31 10° S visible
09 Aug - 03:45:47 10° S 03:52:52 25° SE 04:00:03 10° ENE daylight
09 Aug - 05:47:44 10° SW 05:57:05 76° NW 06:06:50 10° NE daylight
09 Aug - 07:55:57 10° WNW 08:03:23 25° NNW 08:11:03 10° NNE daylight
09 Aug - 10:07:06 10° NNW 10:12:15 15° N 10:17:28 10° NE daylight
09 Aug - 12:12:48 10° NNW 12:21:00 27° NNE 12:29:16 10° E visible
09 Aug - 14:17:00 10° NW 14:27:13 83° NE 14:37:23 10° SE visible
09 Aug - 16:24:08 10° WNW 16:31:36 24° SW 16:39:03 10° S visible
